This demonstration page uses our WeatherBlox Daily Observations layout. Learn more.

Left ArrowRight Arrow

Hourly Observations for September 13, 2022

Temp ( °F °C ) Dew Point ( °F °C ) Humidity (%) Winds ( mph kmh ) Pressure ( in mb ) Visibility ( mi km ) Precip ( " mm )
12:53 am 00:53 Clear 67 19.4 49 9.4 52 52 SSE 8 13 29.87 1012 10 16 0.00 0.00
1:53 am 01:53 Clear 65 18.3 49 9.4 56 56 S 6 9 29.87 1011 10 16 0.00 0.00
2:53 am 02:53 Clear 64 17.8 48 8.9 56 56 SSE 7 11 29.85 1011 10 16 0.00 0.00
3:53 am 03:53 Clear 58 14.4 50 10 75 75 Calm 29.85 1011 10 16 0.00 0.00
4:53 am 04:53 Clear 61 16.1 49 9.4 64 64 S 3 6 29.85 1011 10 16 0.00 0.00
5:53 am 05:53 Clear 59 15 49 9.4 69 69 Calm 29.85 1011 10 16 0.00 0.00
6:53 am 06:53 Clear 58 14.4 49 9.4 72 72 SSW 6 9 29.85 1011 10 16 0.00 0.00
7:53 am 07:53 Sunny 57 13.9 49 9.4 74 74 SSW 3 6 29.87 1012 10 16 0.00 0.00
8:53 am 08:53 Sunny 60 15.6 51 10.6 72 72 SSW 6 9 29.88 1012 10 16 0.00 0.00
9:53 am 09:53 Sunny 66 18.9 54 12.2 65 65 S 6 9 29.88 1012 10 16 0.00 0.00
10:53 am 10:53 Sunny 73 22.8 56 13.3 55 55 S 6 9 29.88 1012 10 16 0.00 0.00
11:53 am 11:53 Sunny 80 26.7 58 14.4 47 47 S 6 9 29.87 1011 10 16 0.00 0.00
12:53 pm 12:53 Sunny 84 28.9 57 13.9 40 40 S 7 11 29.85 1011 10 16 0.00 0.00
1:53 pm 13:53 Sunny 88 31.1 57 13.9 35 35 S 7 11 29.84 1011 10 16 0.00 0.00
2:53 pm 14:53 Sunny 90 32.2 56 13.3 32 32 S 13 20 29.83 1010 10 16 0.00 0.00
3:53 pm 15:53 Sunny 91 32.8 52 11.1 27 27 S 14 22 29.81 1010 10 16 0.00 0.00
4:53 pm 16:53 Sunny 90 32.2 54 12.2 30 30 S 9 15 29.81 1010 10 16 0.00 0.00
5:53 pm 17:53 Sunny 88 31.1 55 12.8 33 33 S 7 11 29.82 1010 10 16 0.00 0.00
6:53 pm 18:53 Sunny 85 29.4 54 12.2 35 35 SSE 8 13 29.82 1010 10 16 0.00 0.00
7:53 pm 19:53 Clear 82 27.8 52 11.1 35 35 SSE 7 11 29.82 1010 10 16 0.00 0.00
8:53 pm 20:53 Clear 77 25 54 12.2 45 45 SSE 7 11 29.84 1011 10 16 0.00 0.00
9:53 pm 21:53 Clear 75 23.9 53 11.7 46 46 SSE 10 17 29.85 1011 10 16 0.00 0.00
10:53 pm 22:53 Clear 72 22.2 54 12.2 53 53 S 8 13 29.85 1011 10 16 0.00 0.00
11:53 pm 23:53 Clear 72 22.2 54 12.2 53 53 S 10 17 29.85 1011 10 16 0.00 0.00

Powered by AerisWeather